User: anonymous   Login
Location: Unspecified
(43.4354°N, 0.0000°E)
Time: 20:21:39
(UTC+00:00)
Language:

ZACube-1 - Orbit

View from above orbital plane
View from above orbital plane
View from above satellite
View from above satellite

Ground track
Ground track

The orbit data is extracted from the following two-line orbital elements,

1 39417U 13066B   19198.01170172  .00000129  00000-0  22710-4 0  9995
2 39417  97.5616 209.9215 0057572 302.0462  57.5167 14.81124822305238
Epoch (UTC): 17 July 2019 00:16:51
Eccentricity: 0.0057572
inclination: 97.5616°
perigee height: 585 km
apogee height: 666 km
right ascension of ascending node: 209.9215°
argument of perigee: 302.0462°
revolutions per day: 14.81124822
mean anomaly at epoch: 57.5167°
orbit number at epoch: 30523

The dashed part of the orbit path shows where the satellite is in the earth's shadow,  

DLR